TimePST,TemperatureF,Dew PointF,Humidity,Sea Level PressureIn,VisibilityMPH,Wind Direction,Wind SpeedMPH,Gust SpeedMPH,PrecipitationIn,Events,Conditions,WindDirDegrees,DateUTC
12:51 AM,59.0,3.9,11,30.05,10.0,North,8.1,-,N/A,,Clear,360,2013-01-21 08:51:00
1:51 AM,59.0,6.1,12,30.04,10.0,North,10.4,-,N/A,,Clear,360,2013-01-21 09:51:00
2:51 AM,59.0,6.1,12,30.03,10.0,North,10.4,-,N/A,,Clear,360,2013-01-21 10:51:00
3:51 AM,60.1,5.0,11,30.01,10.0,North,12.7,-,N/A,,Clear,360,2013-01-21 11:51:00
4:51 AM,60.1,5.0,11,30.01,10.0,North,11.5,-,N/A,,Clear,350,2013-01-21 12:51:00
5:51 AM,60.1,3.9,11,30.01,10.0,North,11.5,-,N/A,,Clear,360,2013-01-21 13:51:00
6:51 AM,59.0,5.0,12,30.03,10.0,North,9.2,-,N/A,,Clear,10,2013-01-21 14:51:00
7:51 AM,63.0,3.9,10,30.03,10.0,North,15.0,-,N/A,,Clear,360,2013-01-21 15:51:00
8:51 AM,66.9,6.1,9,30.05,10.0,North,16.1,-,N/A,,Clear,360,2013-01-21 16:51:00
9:51 AM,72.0,5.0,7,30.07,10.0,North,11.5,-,N/A,,Clear,10,2013-01-21 17:51:00
10:51 AM,72.0,10.0,9,30.09,10.0,East,5.8,-,N/A,,Clear,90,2013-01-21 18:51:00
11:51 AM,73.9,8.1,8,30.07,10.0,Calm,Calm,-,N/A,,Clear,0,2013-01-21 19:51:00
12:51 PM,78.1,3.9,6,30.04,10.0,Calm,Calm,-,N/A,,Clear,0,2013-01-21 20:51:00
1:51 PM,77.0,1.9,5,30.02,10.0,NW,6.9,-,N/A,,Clear,310,2013-01-21 21:51:00
2:51 PM,75.9,3.0,6,30.02,10.0,North,12.7,20.7,N/A,,Clear,350,2013-01-21 22:51:00
3:51 PM,75.0,1.9,6,30.01,10.0,NNW,12.7,-,N/A,,Clear,340,2013-01-21 23:51:00
4:51 PM,71.1,1.9,7,30.00,10.0,North,12.7,-,N/A,,Clear,360,2013-01-22 00:51:00
6:51 PM,66.0,-2.0,7,30.01,10.0,North,12.7,-,N/A,,Clear,360,2013-01-22 02:51:00
7:51 PM,64.0,-0.9,7,30.04,10.0,North,12.7,-,N/A,,Clear,10,2013-01-22 03:51:00
8:51 PM,63.0,-0.9,8,30.06,10.0,North,11.5,-,N/A,,Clear,10,2013-01-22 04:51:00
9:51 PM,57.0,5.0,12,30.07,10.0,Calm,Calm,-,N/A,,Clear,0,2013-01-22 05:51:00
10:51 PM,54.0,10.0,17,30.08,10.0,Calm,Calm,-,N/A,,Clear,0,2013-01-22 06:51:00
11:51 PM,51.1,12.9,22,30.07,10.0,Calm,Calm,-,N/A,,Clear,0,2013-01-22 07:51:00